OBJECT G, 44316

Orbit data source: Space-Track

You're viewing an Uncataloged Satellite

Recently launched and/or uncataloged satellites may have evolving metadata. Metadata may include but not limited to: Owner, Maufacturer, Bus, Motor, and Mission.

OBJECT G, 44316 is a satellite owned by CETG (CN) in LEO that was launched on Wed, 05 Jun 2019 UTC via a CHANG ZHENG 11 launch vehicle from the Yellow Sea Launch Area, China (YSLA). Unknown objects in Earth's orbit typically refer to objects detected orbiting the Earth but have not yet been identified or cataloged. These objects could be anything from previously untracked satellites, spent rocket stages, debris from satellite collisions, or even natural meteoroids temporarily captured by Earth's gravity.

Loading next visibility...
Identifier
44316, 2019-032G
Orbit
LEO
Country
Flag of CNCN / PRC
Related business
None
Manufacturer
DKJ?
Mission
Commercial Technology
Bus & Motor
TIANDI, Unknown motor
Mass
65 kg wet, 65 kg dry
Launch date (UTC)
2019-06-05 (6 years ago)
Launch vehicle
CHANG ZHENG 11
Launch site
Yellow Sea Launch Area, China (YSLA)
Object type
Unknown
Shape & HBR
Box, 0.5 m
Radar Cross Section
1.500 m², Medium (>0.1 m² and < 1m²)

Expand to show TLE details & history
Last TLE update: 12 hours ago

TLE from 12 hours ago
0 OBJECT G
1 44316U 19032G   25260.99288877  .00007523  00000-0  36187-3 0  9991
2 44316  44.9756  98.7578 0013669 150.8771 209.2873 15.19299321345569
Epoch: 2025-09-17T23:49Z
TLE epoch observation values (Epoch: 2025-09-17T23:49:45.589Z)
Latitude
-0.00005°
Longitude
104.15692°
Altitude
516.165 km
Speed
7.603 km/s
True Right ascension
06h 35m 01s
True Declination
0° 00' 00"
Sunlit
Object was in daylight at epoch
Visualization orbit readout
Latitude
Unknown
Longitude
Unknown
Altitude
Unknown
Speed
Unknown
Apparent Right ascension
Unknown
Apparent Declination
Unknown
Sunlit
N/A
Visualization observer readout
Local Sidereal Time
04:18:34
Azimuth
Unknown
Elevation
Unknown
Doppler factor
Unknown
Orbital elements
Apogee altitude
518.979 km
Perigee altitude
500.15 km
Semi-major axis
6,887.701 km
Eccentricity
0.00137
Inclination
44.9756°
RAAN
98.7578°
Arg. of periapsis
150.8771°
True anomaly
209.21079°
Mean anomaly
209.2873°
Eccentric anomaly
209.24903°
Mean motion
3.79692 °/min
Orbital period
94.81 mins
BSTAR
0.00036187
Loading maneuver chart data...
Computing Atmospheric mass density...
Loading historical data...
Loading historical data...
Loading historical data...
Loading historical data...
Loading historical data...
Loading historical data...
Loading historical data...

Documentation

Showing up to 5 results
|